Date,TemperatureHighF,TemperatureAvgF,TemperatureLowF,DewpointHighF,DewpointAvgF,DewpointLowF,HumidityHigh,HumidityAvg,HumidityLow,PressureMaxIn,PressureMinIn,WindSpeedMaxMPH,WindSpeedAvgMPH,GustSpeedMaxMPH,PrecipitationSumIn
2013-1-1,39.2,36.0,33.8,30.9,26.1,16.7,79,68,43,29.99,29.84,21,6,26,0.12
2013-1-2,34.5,31.8,27.0,27.1,17.8,10.8,74,57,41,30.07,29.87,16,5,25,0.00
2013-1-3,35.6,27.2,20.5,15.3,12.6,10.0,64,54,41,30.13,30.01,16,3,21,0.00
2013-1-4,32.5,28.6,25.9,16.2,13.4,11.5,55,52,48,30.19,30.07,24,9,35,0.00
2013-1-5,40.8,31.9,23.2,21.4,16.7,11.8,63,54,40,30.28,30.07,26,4,31,0.04
2013-1-6,39.4,36.4,32.0,23.4,21.2,19.0,61,54,50,30.07,29.90,22,7,26,0.13
2013-1-7,39.4,31.3,23.9,22.6,17.4,14.2,67,56,45,30.31,30.04,25,5,30,0.00
2013-1-8,45.9,28.7,17.4,26.2,16.8,9.3,74,62,42,30.28,30.19,11,1,15,0.04
2013-1-9,46.4,31.6,24.3,38.3,22.5,15.6,75,69,57,30.31,30.19,6,1,9,0.00
2013-1-19,46.8,36.6,27.3,27.0,21.2,18.3,76,55,39,30.22,29.96,22,4,27,0.04
2013-1-20,46.0,38.1,27.7,24.8,19.3,8.6,71,47,35,29.99,29.90,40,9,44,0.05
2013-1-21,39.9,30.2,21.9,15.8,8.7,-0.8,57,40,30,29.99,29.75,30,8,51,0.00
2013-1-22,21.9,14.5,9.5,0.0,-6.7,-10.5,40,37,35,30.07,29.87,46,12,51,0.00
2013-1-23,24.8,18.8,10.9,6.3,-2.9,-10.8,46,38,32,30.13,29.87,39,8,45,0.00
2013-1-24,24.4,18.5,9.3,9.7,0.8,-8.1,55,46,38,30.34,29.84,26,8,45,0.00
2013-1-25,27.1,17.7,9.3,23.7,5.2,-8.1,89,59,41,30.31,29.90,18,3,18,0.00
2013-1-26,32.0,26.5,23.5,23.4,13.2,9.9,84,57,46,30.28,29.90,35,10,54,0.00
2013-1-27,43.0,27.0,9.7,21.7,10.9,0.7,78,52,33,30.37,30.25,11,3,15,0.04
2013-1-28,58.6,43.1,30.6,45.5,33.9,15.8,86,71,45,30.25,30.04,26,3,26,0.25
2013-1-29,72.5,54.2,39.9,56.3,44.2,36.7,97,74,33,30.10,29.93,16,3,21,0.00
2013-1-30,65.8,52.6,37.0,58.3,48.4,34.5,98,87,61,29.93,29.34,42,5,42,1.78
2013-1-31,45.9,30.6,24.8,44.2,16.0,6.4,94,56,40,29.84,29.31,51,13,65,0.04